This is the latest recevied weather packets stored in our database for station/object DM4XI-13. If no packets are shown the sender has not sent any weather packets the latest 10 day(s).
| Time | Temp. | Humidity | Pressure | Rain* | Wind** | Luminosity | Snow |
|---|---|---|---|---|---|---|---|
| 1778171148 | 11.67° C | 76% | 1012.3 hPa | 0 mm | 0.45 m/s, 266° | 64 W/m² | - |
| 1778171087 | 11.67° C | 76% | 1012.3 hPa | 0 mm | 0 m/s | 66 W/m² | - |
| 1778171026 | 11.67° C | 77% | 1012.4 hPa | 0 mm | 0 m/s | 66 W/m² | - |
| 1778170965 | 11.67° C | 76% | 1012.2 hPa | 0 mm | 0 m/s | 68 W/m² | - |
| 1778170904 | 11.67° C | 76% | 1012.5 hPa | 0 mm | 0.89 m/s, 293° | 67 W/m² | - |
| 1778170843 | 11.67° C | 75% | 1012.4 hPa | 0 mm | 1.34 m/s, 272° | 64 W/m² | - |
| 1778170782 | 11.67° C | 75% | 1012.3 hPa | 0 mm | 0.45 m/s, 274° | 59 W/m² | - |
| 1778170721 | 11.67° C | 75% | 1012.4 hPa | 0 mm | 1.34 m/s, 296° | 60 W/m² | - |
| 1778170660 | 11.67° C | 76% | 1012.4 hPa | 0 mm | 0.89 m/s, 234° | 63 W/m² | - |
| 1778170599 | 11.67° C | 76% | 1012.4 hPa | 0 mm | 0.45 m/s, 243° | 65 W/m² | - |
| 1778170538 | 11.67° C | 76% | 1012.4 hPa | 0 mm | 0.45 m/s, 282° | 62 W/m² | - |
| 1778170477 | 11.67° C | 76% | 1012.4 hPa | 0 mm | 0.89 m/s, 261° | 57 W/m² | - |
| 1778170416 | 11.67° C | 76% | 1012.2 hPa | 0 mm | 0.89 m/s, 275° | 55 W/m² | - |
| 1778170354 | 11.67° C | 75% | 1012.3 hPa | 0 mm | 0.89 m/s, 243° | 57 W/m² | - |
| 1778170294 | 11.67° C | 75% | 1012.3 hPa | 0 mm | 0 m/s | 61 W/m² | - |
| 1778170233 | 11.67° C | 75% | 1012.3 hPa | 0 mm | 1.34 m/s, 294° | 65 W/m² | - |
| 1778170172 | 11.67° C | 75% | 1012.1 hPa | 0 mm | 0 m/s | 71 W/m² | - |
| 1778170111 | 11.67° C | 76% | 1012.2 hPa | 0 mm | 0.89 m/s, 244° | 79 W/m² | - |
| 1778170050 | 11.67° C | 75% | 1012.3 hPa | 0 mm | 1.34 m/s, 312° | 84 W/m² | - |
| 1778169989 | 11.67° C | 75% | 1012.4 hPa | 0 mm | 0 m/s | 86 W/m² | - |
| 1778169928 | 11.67° C | 75% | 1012.3 hPa | 0 mm | 0.89 m/s, 259° | 84 W/m² | - |
| 1778169866 | 11.67° C | 75% | 1012.3 hPa | 0 mm | 0.89 m/s, 283° | 83 W/m² | - |
| 1778169806 | 11.67° C | 74% | 1012.4 hPa | 0 mm | 1.34 m/s, 268° | 85 W/m² | - |
| 1778169745 | 11.67° C | 75% | 1012.3 hPa | 0 mm | 1.34 m/s, 318° | 88 W/m² | - |
| 1778169684 | 11.67° C | 74% | 1012.3 hPa | 0 mm | 1.34 m/s, 294° | 92 W/m² | - |
* Rain latest hour (hover to see other rain measurements)
** Current wind speed in m/s (hover to see current wind gust speed)